Terug naar catalogus

GHGSAT-C7

ActiefWetenschapSSO
NORAD 56209·PAYLOAD·🇨🇦 Canada

Gelanceerd Apr 15, 2023 vanaf Vandenberg Space Force Base

Loading…

Volgende Passages (komende 24 uur)

TLE

VersSource: Space-Track

Epoch: Sep 14, 2026, 13:37 UTC

1 56209U 23054AH  26257.56746841  .00009059  00000-0  15435-3 0  9993
2 56209  97.2911 167.1325 0008948  78.8549 281.3709 15.51565179192241

Volg GHGSAT-C7 in realtime met AllMySat

Download on the App Store